User: anonymous   Login
Location: Azul
(36.7830°S, 59.8500°W)
Time: 10:46:20
(UTC-03:00)
Language:

RS-15 - Orbit

View from above orbital plane
View from above orbital plane
View from above satellite
View from above satellite

Ground track
Ground track

The orbit data is extracted from the following two-line orbital elements,

1 23439U 94085A   21294.90911699 -.00000037  00000-0  15882-3 0  9997
2 23439  64.8157 171.4371 0164468 313.3802  45.3522 11.27570320104595
Epoch (UTC): 21 October 2021 21:49:07
Eccentricity: 0.0164468
inclination: 64.8157°
perigee height: 1884 km
apogee height: 2160 km
right ascension of ascending node: 171.4371°
argument of perigee: 313.3802°
revolutions per day: 11.27570320
mean anomaly at epoch: 45.3522°
orbit number at epoch: 10459

The dashed part of the orbit path shows where the satellite is in the earth's shadow,  

DLR